San Antonio, TX

3:17 PM CDT on May 28, 2017 (GMT -0500)
San Antonio International

Weather History for KSAT - August, 2013

Change the Weather History Date:

Saturday, August 3, 2013

  Actual Average Record
Temperature  
Mean Temperature 91 °F 86 °F  
Max Temperature 102 °F 96 °F 103 °F (1998)
Min Temperature 79 °F 75 °F 65 °F (1973)
Degree Days  
Heating Degree Days 0 0  
Month to date heating degree days 0 0  
Since 1 June heating degree days 0 0  
Since 1 July heating degree days 0 0  
Cooling Degree Days 26 21  
Month to date cooling degree days 77 63  
Year to date cooling degree days 1931 1823  
Since 1 June cooling degree days 1314 1194  
Growing Degree Days 40 (Base 50)    
Moisture  
Dew Point 69 °F    
Average Humidity 58    
Maximum Humidity 85    
Minimum Humidity 31    
Precipitation  
Precipitation 0.00 in 0.05 in 2.38 in (1971)
Month to date precipitation 0.00 0.14  
Year to date precipitation 22.59 18.99  
Snow  
Snow 0.00 in - - ()
Month to date snowfall 0.0  
Since 1 June snowfall 0.0  
Since 1 July snowfall 0.0  
Snow Depth 0.00 in    
Sea Level Pressure  
Sea Level Pressure 29.94 in    
Wind  
Wind Speed 11 mph (SSE)    
Max Wind Speed 24 mph    
Max Gust Speed 29 mph    
Visibility 10 miles    
Events      
T = Trace of Precipitation, MM = Missing Value Source: NWS Daily Summary

Daily Weather History Graph

Daily Weather History Graph

Search for Another Location

Airport or City:

Trip Planner

Search our weather history database for the weather conditions in past years. The results will help you decide how hot, cold, wet, or windy it might be!

Date:

Astronomy

Aug. 03, 2013 Rise Set
Actual Time 6:55 AM CDT 8:24 PM CDT
Civil Twilight 6:29 AM CDT 8:50 PM CDT
Nautical Twilight 5:58 AM CDT 9:20 PM CDT
Astronomical Twilight 5:26 AM CDT 9:52 PM CDT
Moon 4:08 AM CDT (8/3) 6:05 PM CDT (8/3)
Length of Visible Light 14h 20m
Length of Day
13h 29m
Waning Crescent, 9% of the Moon is Illuminated
Aug 3
Waning Crescent
Aug 6
New
Aug 14
First Quarter
Aug 20
Full
Aug 28
Last Quarter

Hourly Weather History & Observations

Time (CDT) Temp. Heat Index Dew Point Humidity Pressure Visibility Wind Dir Wind Speed Gust Speed Precip Events Conditions
12:51 AM 82.9 °F 87.5 °F 71.1 °F 67% 29.95 in 10.0 mi SSE 15.0 mph - N/A   Partly Cloudy
1:51 AM 81.0 °F 85.2 °F 72.0 °F 74% 29.95 in 10.0 mi SSE 10.4 mph - N/A   Partly Cloudy
2:51 AM 80.1 °F 83.8 °F 72.0 °F 76% 29.94 in 10.0 mi SSE 8.1 mph - N/A   Scattered Clouds
3:27 AM 80.6 °F 85.4 °F 73.4 °F 79% 30.00 in 10.0 mi South 9.2 mph - N/A   Mostly Cloudy
3:51 AM 80.1 °F 84.2 °F 73.0 °F 79% 29.94 in 10.0 mi SSE 10.4 mph - N/A   Mostly Cloudy
4:51 AM 80.1 °F 84.2 °F 73.0 °F 79% 29.95 in 10.0 mi South 11.5 mph - N/A   Mostly Cloudy
5:51 AM 80.1 °F 84.2 °F 73.0 °F 79% 29.96 in 10.0 mi SSE 9.2 mph - N/A   Mostly Cloudy
6:51 AM 79.0 °F - 73.0 °F 82% 29.96 in 10.0 mi South 5.8 mph - N/A   Mostly Cloudy
7:06 AM 78.8 °F - 73.4 °F 83% 30.01 in 10.0 mi South 5.8 mph - N/A   Mostly Cloudy
7:51 AM 79.0 °F - 73.0 °F 82% 29.96 in 10.0 mi South 4.6 mph - N/A   Mostly Cloudy
8:51 AM 82.0 °F 86.7 °F 72.0 °F 71% 29.96 in 10.0 mi South 10.4 mph - N/A   Mostly Cloudy
9:51 AM 86.0 °F 90.7 °F 70.0 °F 59% 29.98 in 10.0 mi SSW 12.7 mph - N/A   Scattered Clouds
10:51 AM 88.0 °F 91.4 °F 68.0 °F 51% 29.98 in 10.0 mi South 11.5 mph - N/A   Scattered Clouds
11:51 AM 91.0 °F 94.3 °F 66.9 °F 45% 29.98 in 10.0 mi SSE 10.4 mph - N/A   Scattered Clouds
12:51 PM 93.9 °F 96.1 °F 64.9 °F 38% 29.97 in 10.0 mi South 8.1 mph - N/A   Scattered Clouds
1:51 PM 95.0 °F 97.0 °F 64.0 °F 36% 29.95 in 10.0 mi Calm Calm - N/A   Scattered Clouds
2:51 PM 98.1 °F 101.2 °F 64.9 °F 34% 29.92 in 10.0 mi SSE 8.1 mph 18.4 mph N/A   Scattered Clouds
3:51 PM 100.0 °F 103.0 °F 64.0 °F 31% 29.90 in 10.0 mi SSE 9.2 mph 18.4 mph N/A   Scattered Clouds
4:51 PM 100.0 °F 104.2 °F 66.0 °F 33% 29.89 in 10.0 mi ESE 9.2 mph - N/A   Scattered Clouds
5:51 PM 100.0 °F 103.6 °F 64.9 °F 32% 29.88 in 10.0 mi SE 13.8 mph 19.6 mph N/A   Mostly Cloudy
6:51 PM 99.0 °F 101.7 °F 64.0 °F 32% 29.87 in 10.0 mi SSE 15.0 mph - N/A   Mostly Cloudy
7:51 PM 97.0 °F 99.3 °F 64.0 °F 34% 29.88 in 10.0 mi SSE 11.5 mph - N/A   Mostly Cloudy
8:51 PM 95.0 °F 99.5 °F 68.0 °F 41% 29.89 in 10.0 mi SSE 23.0 mph 28.8 mph N/A   Mostly Cloudy
9:51 PM 89.1 °F 96.0 °F 72.0 °F 57% 29.92 in 10.0 mi SE 19.6 mph - N/A   Mostly Cloudy
10:51 PM 87.1 °F 93.6 °F 72.0 °F 61% 29.96 in 10.0 mi SSE 12.7 mph - N/A   Scattered Clouds
11:51 PM 84.9 °F 90.7 °F 72.0 °F 65% 29.99 in 10.0 mi SSE 15.0 mph 26.5 mph N/A   Partly Cloudy